• In Germany
  • List of Countries
  • For 7 days
  • Water Temperature
  • Satellite Maps
  • Weather Map
  • Weather Widgets
  • user-avatar
    Login

    Hourly Weather Adelaide

    Today, 24 November, Friday

    Time Temperature Precipitation Wind Pressure Humidity
    00:00 +19°C° 0 mm 3 mps 754 mmHg 81%
    01:00 +19°C° 0 mm 2 mps 754 mmHg 81%
    02:00 +18°C° 0 mm 2 mps 754 mmHg 81%
    03:00 +18°C° 0 mm 2 mps 754 mmHg 79%
    04:00 +19°C° 0 mm 2 mps 754 mmHg 76%
    05:00 +20°C° 0 mm 2 mps 754 mmHg 74%
    06:00 +20°C° 0 mm 2 mps 755 mmHg 71%
    07:00 +23°C° 0 mm 2 mps 755 mmHg 64%
    08:00 +25°C° 0 mm 2 mps 755 mmHg 56%
    09:00 +28°C° 0 mm 2 mps 755 mmHg 48%
    10:00 +28°C° 0 mm 3 mps 755 mmHg 47%
    11:00 +28°C° 0 mm 3 mps 755 mmHg 46%
    12:00 +28°C° 0 mm 3 mps 755 mmHg 46%
    13:00 +28°C° 0.1 mm 3 mps 754 mmHg 48%
    14:00 +27°C° 0.1 mm 3 mps 754 mmHg 50%
    15:00 +27°C° 0 mm 3 mps 754 mmHg 52%
    16:00 +26°C° 0 mm 3 mps 754 mmHg 55%
    17:00 +25°C° 0 mm 4 mps 754 mmHg 58%
    18:00 +25°C° 0 mm 4 mps 754 mmHg 62%
    19:00 +22°C° 0 mm 4 mps 754 mmHg 66%
    20:00 +21°C° 0 mm 4 mps 755 mmHg 71%
    21:00 +20°C° 0 mm 4 mps 755 mmHg 76%
    22:00 +20°C° 0 mm 3 mps 755 mmHg 78%
    23:00 +19°C° 0 mm 3 mps 755 mmHg 79%

    Tomorrow, 25 November, Saturday

    Time Temperature Precipitation Wind Pressure Humidity
    00:00 +19°C° 0 mm 3 mps 755 mmHg 81%
    01:00 +18°C° 0 mm 3 mps 755 mmHg 83%
    02:00 +18°C° 0 mm 3 mps 755 mmHg 85%
    03:00 +18°C° 0 mm 2 mps 755 mmHg 87%
    04:00 +18°C° 0 mm 2 mps 755 mmHg 85%
    05:00 +19°C° 0 mm 2 mps 755 mmHg 84%
    06:00 +19°C° 0 mm 2 mps 755 mmHg 82%
    07:00 +21°C° 0 mm 3 mps 755 mmHg 75%
    08:00 +22°C° 0 mm 3 mps 756 mmHg 68%
    09:00 +25°C° 0 mm 3 mps 756 mmHg 62%
    10:00 +25°C° 0.2 mm 3 mps 756 mmHg 59%
    11:00 +26°C° 0.2 mm 4 mps 755 mmHg 57%
    12:00 +27°C° 0.2 mm 4 mps 755 mmHg 54%
    13:00 +26°C° 0.1 mm 4 mps 755 mmHg 54%
    14:00 +26°C° 0.1 mm 4 mps 755 mmHg 54%
    15:00 +26°C° 0.1 mm 5 mps 755 mmHg 54%
    16:00 +25°C° 0 mm 5 mps 755 mmHg 58%
    17:00 +23°C° 0 mm 5 mps 755 mmHg 63%
    18:00 +22°C° 0 mm 5 mps 755 mmHg 67%
    19:00 +21°C° 0 mm 4 mps 756 mmHg 72%
    20:00 +19°C° 0 mm 4 mps 756 mmHg 78%
    21:00 +18°C° 0 mm 3 mps 756 mmHg 83%
    22:00 +18°C° 0 mm 3 mps 756 mmHg 85%
    23:00 +18°C° 0 mm 3 mps 756 mmHg 86%

    Day after tomorrow, 26 November, Sunday

    Time Temperature Precipitation Wind Pressure Humidity
    00:00 +17°C° 0 mm 3 mps 756 mmHg 87%
    01:00 +17°C° 0 mm 3 mps 756 mmHg 88%
    02:00 +17°C° 0 mm 3 mps 756 mmHg 89%
    03:00 +16°C° 0 mm 3 mps 756 mmHg 89%
    04:00 +17°C° 0 mm 3 mps 756 mmHg 87%
    05:00 +17°C° 0 mm 3 mps 756 mmHg 85%
    06:00 +17°C° 0 mm 3 mps 757 mmHg 83%
    07:00 +19°C° 0 mm 3 mps 757 mmHg 75%
    08:00 +20°C° 0 mm 3 mps 757 mmHg 67%
    09:00 +22°C° 0 mm 3 mps 757 mmHg 59%
    10:00 +23°C° 0 mm 4 mps 757 mmHg 55%
    11:00 +25°C° 0 mm 5 mps 757 mmHg 52%
    12:00 +26°C° 0 mm 5 mps 757 mmHg 48%
    13:00 +26°C° 0 mm 5 mps 757 mmHg 48%
    14:00 +24°C° 0 mm 6 mps 757 mmHg 48%
    15:00 +24°C° 0 mm 6 mps 756 mmHg 48%
    16:00 +23°C° 0 mm 6 mps 757 mmHg 53%
    17:00 +22°C° 0 mm 6 mps 757 mmHg 58%
    18:00 +20°C° 0 mm 5 mps 757 mmHg 63%
    19:00 +19°C° 0 mm 5 mps 758 mmHg 69%
    20:00 +16°C° 0 mm 5 mps 758 mmHg 75%
    21:00 +15°C° 0 mm 4 mps 759 mmHg 82%
    22:00 +15°C° 0 mm 4 mps 758 mmHg 82%
    23:00 +14°C° 0 mm 4 mps 758 mmHg 83%

    27 November, Monday

    Time Temperature Precipitation Wind Pressure Humidity
    00:00 +14°C° 0 mm 4 mps 758 mmHg 84%
    01:00 +14°C° 0 mm 4 mps 758 mmHg 85%
    02:00 +13°C° 0 mm 4 mps 758 mmHg 86%
    03:00 +13°C° 0 mm 4 mps 758 mmHg 86%
    04:00 +13°C° 0 mm 4 mps 758 mmHg 83%
    05:00 +14°C° 0 mm 4 mps 758 mmHg 80%
    06:00 +14°C° 0 mm 4 mps 758 mmHg 76%
    07:00 +17°C° 0 mm 4 mps 758 mmHg 65%
    08:00 +20°C° 0 mm 3 mps 758 mmHg 53%
    09:00 +22°C° 0 mm 3 mps 758 mmHg 42%
    10:00 +24°C° 0 mm 3 mps 758 mmHg 37%
    11:00 +26°C° 0 mm 3 mps 757 mmHg 33%
    12:00 +27°C° 0 mm 4 mps 757 mmHg 29%
    13:00 +27°C° 0 mm 4 mps 757 mmHg 30%
    14:00 +27°C° 0 mm 5 mps 756 mmHg 32%
    15:00 +27°C° 0 mm 6 mps 756 mmHg 33%
    16:00 +26°C° 0 mm 6 mps 756 mmHg 40%
    17:00 +23°C° 0 mm 6 mps 756 mmHg 47%
    18:00 +21°C° 0 mm 6 mps 757 mmHg 54%
    19:00 +20°C° 0 mm 6 mps 757 mmHg 59%
    20:00 +19°C° 0 mm 5 mps 757 mmHg 64%
    21:00 +16°C° 0 mm 5 mps 758 mmHg 70%
    22:00 +17°C° 0 mm 4 mps 757 mmHg 71%
    23:00 +17°C° 0 mm 4 mps 757 mmHg 73%

    28 November, Tuesday

    Time Temperature Precipitation Wind Pressure Humidity
    00:00 +17°C° 0 mm 3 mps 757 mmHg 74%
    01:00 +17°C° 0 mm 3 mps 756 mmHg 75%
    02:00 +17°C° 0 mm 3 mps 756 mmHg 75%
    03:00 +17°C° 0 mm 3 mps 756 mmHg 75%
    04:00 +18°C° 0 mm 3 mps 756 mmHg 72%
    05:00 +19°C° 0 mm 3 mps 756 mmHg 69%
    06:00 +20°C° 0 mm 3 mps 756 mmHg 66%
    07:00 +24°C° 0 mm 3 mps 756 mmHg 57%
    08:00 +27°C° 0 mm 3 mps 756 mmHg 47%
    09:00 +29°C° 0 mm 3 mps 756 mmHg 38%
    10:00 +31°C° 0 mm 3 mps 756 mmHg 32%
    11:00 +34°C° 0 mm 2 mps 756 mmHg 25%
    12:00 +35°C° 0 mm 2 mps 755 mmHg 19%
    13:00 +36°C° 0 mm 2 mps 755 mmHg 19%
    14:00 +36°C° 0 mm 3 mps 754 mmHg 18%
    15:00 +36°C° 0 mm 3 mps 754 mmHg 18%
    16:00 +34°C° 0 mm 4 mps 754 mmHg 23%
    17:00 +32°C° 0 mm 4 mps 754 mmHg 27%
    18:00 +30°C° 0 mm 4 mps 754 mmHg 32%
    19:00 +28°C° 0 mm 4 mps 754 mmHg 37%
    20:00 +26°C° 0 mm 4 mps 754 mmHg 42%
    21:00 +25°C° 0 mm 4 mps 754 mmHg 47%
    22:00 +25°C° 0 mm 4 mps 754 mmHg 47%
    23:00 +24°C° 0 mm 3 mps 754 mmHg 48%

    29 November, Wednesday

    Time Temperature Precipitation Wind Pressure Humidity
    00:00 +24°C° 0 mm 3 mps 754 mmHg 48%
    01:00 +25°C° 0 mm 3 mps 754 mmHg 45%
    02:00 +25°C° 0 mm 3 mps 753 mmHg 43%
    03:00 +25°C° 0 mm 3 mps 753 mmHg 40%
    04:00 +26°C° 0 mm 4 mps 754 mmHg 43%
    05:00 +27°C° 0 mm 4 mps 754 mmHg 46%
    06:00 +28°C° 0 mm 4 mps 754 mmHg 49%
    07:00 +30°C° 0 mm 4 mps 754 mmHg 43%
    08:00 +33°C° 0 mm 4 mps 754 mmHg 38%
    09:00 +36°C° 0 mm 4 mps 754 mmHg 32%
    10:00 +36°C° 0 mm 4 mps 754 mmHg 30%
    11:00 +37°C° 0 mm 3 mps 753 mmHg 28%
    12:00 +38°C° 0 mm 3 mps 753 mmHg 27%
    13:00 +38°C° 0 mm 2 mps 752 mmHg 27%
    14:00 +37°C° 0 mm 2 mps 752 mmHg 28%
    15:00 +36°C° 0 mm 1 mps 752 mmHg 28%
    16:00 +36°C° 0 mm 2 mps 752 mmHg 31%
    17:00 +35°C° 0 mm 2 mps 752 mmHg 33%
    18:00 +34°C° 0 mm 2 mps 752 mmHg 36%
    19:00 +33°C° 0.1 mm 3 mps 753 mmHg 40%
    20:00 +32°C° 0.1 mm 4 mps 753 mmHg 44%
    21:00 +30°C° 0.1 mm 6 mps 753 mmHg 49%
    22:00 +29°C° 0 mm 5 mps 753 mmHg 52%
    23:00 +28°C° 0 mm 5 mps 753 mmHg 55%
    Show more